Location: Wien
(48.2082°N, 16.3738°E)
Time: 11:55:08
(UTC+01:00)

Vanguard 2 - Visible Passes

Search period start: 22 February 2024 00:00
Search period end: 03 March 2024 00:00
Orbit: 553 x 2919 km, 32.9° (Epoch: 21 February)

Date Brightness Start Highest point End Pass type
(mag) Time Alt. Az. Time Alt. Az. Time Alt. Az.
22 Feb 10.9 17:59:23 10° SSE 18:05:20 15° SE 18:12:29 10° ESE visible
22 Feb 10.4 20:02:16 10° SW 20:13:10 36° SSE 20:15:31 34° SE visible
22 Feb 10.7 22:09:28 10° WSW 22:16:43 34° SW 22:16:43 34° SW visible
23 Feb 10.8 18:12:30 10° S 18:19:44 20° SE 18:28:40 10° E visible
23 Feb 10.4 20:16:48 10° SW 20:27:56 39° SSE 20:29:51 38° SSE visible
23 Feb 10.8 22:24:27 10° WSW 22:31:03 31° SW 22:31:03 31° SW visible
24 Feb 10.6 18:26:15 10° SSW 18:34:13 24° SE 18:42:57 13° ESE visible
24 Feb 10.3 20:31:30 10° SW 20:42:45 41° SSE 20:44:08 40° SSE visible
24 Feb 10.9 22:39:30 10° WSW 22:45:20 28° SW 22:45:20 28° SW visible
25 Feb 10.5 18:40:21 10° SSW 18:48:46 28° SSE 18:57:11 16° ESE visible
25 Feb 10.2 20:46:18 10° WSW 20:57:38 43° S 20:58:23 42° SSE visible
25 Feb 11.0 22:54:38 10° WSW 22:59:34 25° WSW 22:59:34 25° WSW visible
26 Feb 10.3 18:54:43 10° SSW 19:03:25 32° SSE 19:11:23 19° ESE visible
26 Feb 10.2 21:01:11 10° WSW 21:12:33 43° S 21:12:35 43° S visible
26 Feb 11.1 23:09:49 10° WSW 23:13:46 21° WSW 23:13:46 21° WSW visible
27 Feb 10.2 19:09:15 10° SW 19:18:09 35° SSE 19:25:33 22° ESE visible
27 Feb 10.3 21:16:09 10° WSW 21:26:45 42° S 21:26:45 42° S visible
27 Feb 11.3 23:25:09 10° WSW 23:27:55 17° WSW 23:27:55 17° WSW visible
28 Feb 10.2 19:23:56 10° SW 19:32:56 37° SSE 19:39:42 25° ESE visible
28 Feb 10.4 21:31:11 10° WSW 21:40:53 40° SSW 21:40:53 40° SSW visible
28 Feb 11.4 23:40:37 10° WSW 23:42:03 13° WSW 23:42:03 13° WSW visible
29 Feb 10.1 19:38:43 10° SW 19:47:47 38° S 19:53:49 27° SE visible
29 Feb 10.5 21:46:17 10° WSW 21:55:00 36° SSW 21:55:00 36° SSW visible
01 Mar 10.1 19:53:35 10° WSW 20:02:41 38° S 20:07:56 30° SE visible
01 Mar 10.6 22:01:30 10° WSW 22:09:07 31° SW 22:09:07 31° SW visible
02 Mar 10.1 18:02:14 10° SW 18:09:04 29° SSE 18:19:06 10° ESE visible
02 Mar 10.2 20:08:33 10° WSW 20:17:36 38° S 20:22:03 31° SSE visible
02 Mar 10.8 22:16:50 10° WSW 22:23:14 26° SW 22:23:14 26° SW visible
